TimeCST,TemperatureF,Dew PointF,Humidity,Sea Level PressureIn,VisibilityMPH,Wind Direction,Wind SpeedMPH,Gust SpeedMPH,PrecipitationIn,Events,Conditions,WindDirDegrees,DateUTC
12:03 AM,10.4,6.8,85,30.15,9.0,NNE,10.4,-,N/A,,Clear,30,2014-01-01 06:03:00
12:58 AM,10.6,5.5,80,30.19,10.0,NNE,12.7,-,N/A,,Partly Cloudy,30,2014-01-01 06:58:00
1:58 AM,10.4,5.2,79,30.20,10.0,NE,8.1,-,N/A,,Overcast,40,2014-01-01 07:58:00
2:58 AM,10.8,5.7,80,30.20,10.0,NNE,12.7,-,N/A,,Partly Cloudy,20,2014-01-01 08:58:00
3:28 AM,10.4,5.0,79,30.16,10.0,NNE,11.5,-,N/A,,Mostly Cloudy,20,2014-01-01 09:28:00
3:45 AM,10.4,5.0,79,30.17,10.0,NNE,11.5,-,N/A,Snow,Light Snow,20,2014-01-01 09:45:00
3:49 AM,10.4,5.0,79,30.17,10.0,NNE,10.4,-,N/A,,Mostly Cloudy,20,2014-01-01 09:49:00
3:54 AM,10.4,5.0,79,30.16,10.0,NNE,10.4,-,N/A,,Overcast,20,2014-01-01 09:54:00
3:58 AM,10.4,5.4,80,30.22,10.0,NNE,10.4,-,0.00,,Overcast,30,2014-01-01 09:58:00
4:07 AM,10.4,5.0,79,30.16,10.0,NNE,12.7,-,N/A,Snow,Light Snow,30,2014-01-01 10:07:00
4:19 AM,10.4,5.0,79,30.15,10.0,NNE,11.5,-,N/A,,Overcast,30,2014-01-01 10:19:00
4:58 AM,11.5,6.1,79,30.23,10.0,NNE,10.4,-,0.00,,Overcast,30,2014-01-01 10:58:00
5:11 AM,12.2,6.8,79,30.16,10.0,NE,13.8,18.4,N/A,Snow,Light Snow,40,2014-01-01 11:11:00
5:20 AM,12.2,6.8,79,30.16,10.0,NNE,12.7,-,N/A,,Mostly Cloudy,30,2014-01-01 11:20:00
5:57 AM,12.2,6.8,79,30.17,10.0,NNE,10.4,18.4,N/A,Snow,Light Snow,30,2014-01-01 11:57:00
5:58 AM,12.2,6.8,79,30.25,10.0,NNE,9.2,18.4,0.00,Snow,Light Snow,30,2014-01-01 11:58:00
6:08 AM,12.2,5.0,73,30.17,10.0,NNE,11.5,-,N/A,,Mostly Cloudy,30,2014-01-01 12:08:00
6:18 AM,12.2,5.0,73,30.17,10.0,NE,13.8,-,N/A,,Scattered Clouds,40,2014-01-01 12:18:00
6:43 AM,10.4,5.0,79,30.19,10.0,NNE,11.5,-,N/A,,Mostly Cloudy,30,2014-01-01 12:43:00
6:56 AM,10.4,5.0,79,30.20,10.0,NNE,11.5,-,N/A,Snow,Light Snow,30,2014-01-01 12:56:00
6:58 AM,10.4,5.0,79,30.27,10.0,NNE,10.4,-,0.00,Snow,Light Snow,30,2014-01-01 12:58:00
7:33 AM,10.4,5.0,79,30.20,9.0,North,9.2,-,N/A,Snow,Light Snow,10,2014-01-01 13:33:00
7:38 AM,10.4,5.0,79,30.20,8.0,North,10.4,-,N/A,Snow,Light Snow,10,2014-01-01 13:38:00
7:48 AM,10.4,5.0,79,30.20,8.0,NNE,10.4,-,N/A,Snow,Light Snow,20,2014-01-01 13:48:00
7:53 AM,10.4,5.0,79,30.20,7.0,NNE,11.5,-,N/A,Snow,Light Snow,20,2014-01-01 13:53:00
7:58 AM,10.4,5.5,81,30.27,6.0,NNE,11.5,-,0.00,Snow,Light Snow,30,2014-01-01 13:58:00
8:03 AM,10.4,5.0,79,30.20,5.0,NNE,12.7,-,N/A,Snow,Light Snow,20,2014-01-01 14:03:00
8:13 AM,10.4,5.0,79,30.20,4.0,NNE,11.5,-,N/A,Snow,Light Snow,20,2014-01-01 14:13:00
8:18 AM,10.4,5.0,79,30.21,5.0,North,10.4,-,N/A,Snow,Light Snow,10,2014-01-01 14:18:00
8:43 AM,8.6,5.0,85,30.22,2.5,North,11.5,-,N/A,Snow,Light Snow,10,2014-01-01 14:43:00
8:48 AM,8.6,5.0,85,30.23,3.0,North,11.5,-,N/A,Snow,Light Snow,10,2014-01-01 14:48:00
8:58 AM,9.0,5.0,84,30.31,4.0,North,9.2,-,0.00,Snow,Light Snow,10,2014-01-01 14:58:00
9:53 AM,8.6,3.2,79,30.26,2.5,NNE,10.4,-,N/A,Snow,Light Snow,20,2014-01-01 15:53:00
9:58 AM,8.2,3.6,81,30.34,2.0,NNE,12.7,-,0.00,Snow,Light Snow,20,2014-01-01 15:58:00
10:28 AM,8.6,3.2,79,30.26,3.0,NNE,11.5,-,N/A,Snow,Light Snow,20,2014-01-01 16:28:00
10:38 AM,8.6,5.0,85,30.26,2.5,North,11.5,-,N/A,Snow,Light Snow,10,2014-01-01 16:38:00
10:52 AM,8.6,3.2,79,30.26,2.5,NNE,10.4,-,N/A,Snow,Light Snow,20,2014-01-01 16:52:00
10:58 AM,8.2,3.7,82,30.34,2.0,NNE,13.8,-,0.00,Snow,Light Snow,20,2014-01-01 16:58:00
11:03 AM,8.6,3.2,79,30.26,1.8,NNE,15.0,-,N/A,Snow,Light Snow,20,2014-01-01 17:03:00
11:23 AM,8.6,3.2,79,30.27,2.0,North,8.1,18.4,N/A,Snow,Light Snow,10,2014-01-01 17:23:00
11:58 AM,8.1,3.6,82,30.34,2.0,North,12.7,-,0.00,Snow,Light Snow,10,2014-01-01 17:58:00
12:13 PM,8.6,5.0,85,30.26,3.0,North,10.4,-,N/A,Snow,Light Snow,10,2014-01-01 18:13:00
12:58 PM,9.3,4.3,80,30.34,4.0,North,12.7,-,0.00,Snow,Light Snow,350,2014-01-01 18:58:00
1:38 PM,10.4,3.2,73,30.26,10.0,North,15.0,19.6,N/A,Snow,Light Snow,350,2014-01-01 19:38:00
1:54 PM,8.6,3.2,79,30.26,10.0,North,13.8,20.7,N/A,,Mostly Cloudy,10,2014-01-01 19:54:00
1:58 PM,9.5,2.8,74,30.33,10.0,North,11.5,19.6,0.00,,Mostly Cloudy,10,2014-01-01 19:58:00
2:58 PM,9.3,2.3,73,30.35,10.0,NNW,12.7,-,N/A,,Clear,340,2014-01-01 20:58:00
3:58 PM,9.1,2.3,74,30.37,10.0,North,10.4,-,N/A,,Clear,350,2014-01-01 21:58:00
4:58 PM,8.4,1.9,75,30.39,10.0,North,12.7,-,N/A,,Clear,350,2014-01-01 22:58:00
5:58 PM,7.5,0.9,74,30.41,10.0,North,12.7,-,N/A,,Clear,350,2014-01-01 23:58:00
6:58 PM,6.4,-0.2,74,30.45,10.0,NNW,6.9,-,N/A,,Partly Cloudy,340,2014-01-02 00:58:00
7:58 PM,7.5,0.3,72,30.47,10.0,NNW,9.2,-,N/A,,Overcast,340,2014-01-02 01:58:00
8:58 PM,6.4,-1.8,69,30.48,10.0,NNW,10.4,-,N/A,,Mostly Cloudy,340,2014-01-02 02:58:00
9:58 PM,4.3,-2.9,72,30.48,10.0,NNW,8.1,-,N/A,,Clear,330,2014-01-02 03:58:00
10:58 PM,3.0,-4.5,71,30.48,10.0,NNW,5.8,-,N/A,,Scattered Clouds,330,2014-01-02 04:58:00
11:58 PM,5.2,-4.0,66,30.48,10.0,NNW,5.8,-,N/A,,Overcast,340,2014-01-02 05:58:00